FW9533 Weather Reports


time (UTC)temp
C
wind
direction
speed
KPH
gust
KPH
rain 1hr
cm
rain 24hr
cm
rain mn
cm
humidity
%
barometer
mb
20260504000145 10 230 11.3 12.9 0.00 0.00 0.00 93 1003.0
20260503235643 11 224 9.7 14.5 0.00 0.00 0.00 90 1003.1
20260503235140 11 218 8.0 14.5 0.00 0.00 0.00 89 1003.3
20260503234638 11 221 11.3 16.1 0.00 0.00 0.00 88 1003.5
20260503234136 11 236 19.3 24.1 0.00 0.00 0.00 84 1003.7
20260503233632 12 217 14.5 20.9 0.00 0.00 0.00 89 1004.1
20260503233128 13 212 12.9 14.5 0.00 0.00 0.00 72 1004.1
20260503232625 14 239 20.9 27.4 0.00 0.00 0.00 63 1003.5
20260503232123 15 220 12.9 33.8 0.00 0.00 0.00 59 1003.1
20260503231620 15 225 20.9 25.7 0.00 0.00 0.00 58 1003.2
20260503231117 15 239 17.7 25.7 0.00 0.00 0.00 58 1003.0
20260503230614 15 205 12.9 24.1 0.00 0.00 0.00 59 1002.8
20260503230111 15 220 22.5 27.4 0.00 0.00 0.00 60 1002.8
20260503225608 15 227 22.5 25.7 0.00 0.00 0.00 60 1002.6
20260503225107 15 222 16.1 17.7 0.00 0.00 0.00 60 1002.4
20260503224605 15 217 20.9 29.0 0.00 0.00 0.00 59 1002.5
20260503224103 15 213 25.7 33.8 0.00 0.00 0.00 58 1002.6
20260503223601 15 222 20.9 29.0 0.00 0.00 0.00 58 1002.6
20260503223056 15 220 19.3 29.0 0.00 0.00 0.00 58 1002.3
20260503222554 15 222 17.7 25.7 0.00 0.00 0.00 58 1002.5
20260503222052 16 237 19.3 29.0 0.00 0.00 0.00 56 1002.7
20260503221550 16 224 14.5 27.4 0.00 0.00 0.00 57 1002.7
20260503221047 16 228 16.1 27.4 0.00 0.00 0.00 58 1002.6
20260503220543 16 200 24.1 32.2 0.00 0.00 0.00 58 1002.5
20260503220040 16 234 25.7 33.8 0.00 0.00 0.00 58 1002.5
20260503215537 16 215 24.1 27.4 0.00 0.00 0.00 58 1002.5
20260503215034 16 151 22.5 33.8 0.00 0.00 0.00 59 1002.4
20260503214533 16 210 16.1 27.4 0.00 0.00 0.00 59 1002.4
20260503214029 15 225 22.5 25.7 0.00 0.00 0.00 60 1002.7
20260503213528 15 243 14.5 25.7 0.00 0.00 0.00 62 1002.6
20260503213024 15 229 17.7 27.4 0.00 0.00 0.00 63 1002.7
20260503212521 16 242 16.1 24.1 0.00 0.00 0.00 60 1002.7
20260503212018 15 235 24.1 33.8 0.00 0.00 0.00 60 1003.3
20260503211515 15 224 33.8 38.6 0.00 0.00 0.00 59 1003.2
20260503211011 16 231 20.9 33.8 0.00 0.00 0.00 59 1003.2
20260503210508 16 230 22.5 37.0 0.00 0.00 0.00 60 1003.3
20260503210004 15 218 25.7 40.2 0.00 0.00 0.00 61 1003.5
20260503205501 15 205 24.1 27.4 0.00 0.00 0.00 63 1003.6
20260503204956 15 249 19.3 35.4 0.00 0.00 0.00 62 1003.6
20260503204454 15 228 24.1 37.0 0.00 0.00 0.00 62 1003.6
20260503203950 16 232 17.7 29.0 0.00 0.00 0.00 61 1003.6
20260503203448 16 235 17.7 25.7 0.00 0.00 0.00 60 1003.8
20260503202945 16 241 17.7 29.0 0.00 0.00 0.00 63 1003.6
20260503202443 15 231 30.6 37.0 0.00 0.00 0.00 62 1003.6
20260503201941 15 235 19.3 33.8 0.00 0.00 0.00 64 1004.1
20260503201438 15 227 19.3 27.4 0.00 0.00 0.00 64 1004.1
20260503200936 15 218 20.9 33.8 0.00 0.00 0.00 65 1004.1
20260503200432 15 223 17.7 32.2 0.00 0.00 0.00 64 1004.2
20260503195928 15 222 20.9 27.4 0.00 0.00 0.00 62 1004.3
20260503195426 15 242 22.5 29.0 0.00 0.00 0.00 63 1004.5
20260503194922 15 206 22.5 27.4 0.00 0.00 0.00 64 1004.6
20260503194419 14 227 22.5 32.2 0.00 0.00 0.00 66 1004.5
20260503193915 14 202 17.7 38.6 0.00 0.00 0.00 66 1004.5
20260503193410 14 236 14.5 27.4 0.00 0.00 0.00 67 1004.5
20260503192906 14 220 25.7 33.8 0.00 0.00 0.00 66 1004.9
20260503192403 14 164 14.5 22.5 0.00 0.00 0.00 70 1004.8
20260503191858 13 230 14.5 24.1 0.00 0.00 0.00 70 1005.0
20260503191356 13 247 22.5 29.0 0.00 0.00 0.00 70 1005.1
20260503190852 14 241 25.7 37.0 0.00 0.00 0.00 68 1005.5
20260503190350 13 230 19.3 33.8 0.00 0.00 0.00 69 1005.3
20260503185846 13 221 20.9 25.7 0.00 0.00 0.00 71 1005.4
20260503185343 13 206 24.1 33.8 0.00 0.00 0.00 70 1005.5
20260503184842 12 222 27.4 32.2 0.00 0.00 0.00 72 1005.4
20260503184339 12 231 27.4 33.8 0.00 0.00 0.00 71 1005.6
20260503183835 12 243 25.7 32.2 0.00 0.00 0.00 70 1005.5
20260503183332 12 215 19.3 29.0 0.00 0.00 0.00 74 1005.5
20260503182829 11 221 12.9 20.9 0.00 0.00 0.00 77 1005.7
20260503182328 11 225 11.3 17.7 0.00 0.00 0.00 79 1005.7
20260503181825 10 223 12.9 14.5 0.00 0.00 0.00 80 1005.7
20260503181322 10 233 8.0 17.7 0.00 0.00 0.00 80 1005.8
20260503180818 10 217 16.1 22.5 0.00 0.00 0.00 76 1006.0
20260503180317 11 216 14.5 22.5 0.00 0.00 0.00 71 1006.1
20260503175813 11 225 20.9 25.7 0.00 0.00 0.00 69 1006.2
20260503175311 12 215 17.7 22.5 0.00 0.00 0.00 68 1006.1
20260503174806 12 218 11.3 22.5 0.00 0.00 0.00 67 1006.0
20260503174304 12 230 12.9 17.7 0.00 0.00 0.00 66 1006.0
20260503173800 12 218 14.5 17.7 0.00 0.00 0.00 68 1006.3
20260503173256 12 224 8.0 14.5 0.00 0.00 0.00 70 1006.2
20260503172753 12 228 14.5 20.9 0.00 0.00 0.00 69 1006.2
20260503172250 12 201 11.3 16.1 0.00 0.00 0.00 71 1006.3
20260503171746 11 215 6.4 17.7 0.00 0.00 0.00 73 1006.3
20260503171244 11 229 12.9 20.9 0.00 0.00 0.00 74 1006.3
20260503170741 11 237 12.9 16.1 0.00 0.00 0.00 76 1006.4
20260503170237 11 205 14.5 17.7 0.00 0.00 0.00 77 1006.4
20260503160159 8 226 17.7 22.5 0.00 0.00 0.00 87 1006.9
20260503150629 8 214 14.5 22.5 0.00 0.00 0.00 94 1007.4
20260503150125 7 237 11.3 14.5 0.00 0.00 0.00 95 1007.2
20260503131019 6 223 14.5 22.5 0.00 0.00 0.00 86 1008.1
20260503130517 6 219 14.5 17.7 0.00 0.00 0.00 85 1008.1
20260503110407 6 231 11.3 14.5 0.00 0.00 0.00 74 1008.5
20260503090258 5 231 8.0 11.3 0.00 0.00 0.00 66 1008.9
20260503081231 5 245 4.8 8.0 0.00 0.00 0.00 66 1009.9
20260503080726 5 228 6.4 11.3 0.00 0.00 0.00 65 1009.9
20260503080224 5 261 6.4 9.7 0.00 0.00 0.00 67 1010.0
20260503072700 1 201 0.0 1.6 0.00 0.00 0.00 92 1010.4
20260503072157 0 193 0.0 0.0 0.00 0.00 0.00 91 1010.4
20260503071654 0 141 0.0 0.0 0.00 0.00 0.00 88 1010.3
20260503071151 0 152 0.0 1.6 0.00 0.00 0.00 90 1010.3
20260503070648 0 142 1.6 3.2 0.00 0.00 0.00 88 1010.4
20260503070146 0 160 1.6 1.6 0.00 0.00 0.00 87 1010.5
20260503060110 0 153 0.0 0.0 0.00 0.00 0.00 94 1011.6
20260503055102 0 218 0.0 0.0 0.00 0.00 0.00 95 1011.7
20260503054557 0 218 0.0 0.0 0.00 0.00 0.00 95 1011.7
20260503054054 0 229 0.0 0.0 0.00 0.00 0.00 94 1011.8
20260503053552 0 218 0.0 0.0 0.00 0.00 0.00 91 1011.9
20260503053050 0 202 0.0 0.0 0.00 0.00 0.00 87 1012.1
20260503052547 0 202 0.0 0.0 0.00 0.00 0.00 90 1012.3
20260503052043 0 203 0.0 0.0 0.00 0.00 0.00 91 1012.2
20260503051538 0 212 0.0 0.0 0.00 0.00 0.00 94 1012.6
20260503051037 0 216 0.0 0.0 0.00 0.00 0.00 94 1012.5
20260503050532 0 216 0.0 0.0 0.00 0.00 0.00 94 1012.6
20260503050030 0 216 0.0 0.0 0.00 0.00 0.00 94 1012.7
20260503045527 0 216 0.0 0.0 0.00 0.00 0.00 93 1012.7
20260503045024 0 216 0.0 0.0 0.00 0.00 0.00 92 1012.5
20260503044520 0 216 0.0 0.0 0.00 0.00 0.00 93 1012.7
20260503044018 0 216 0.0 0.0 0.00 0.00 0.00 89 1012.8
20260503043514 0 216 0.0 0.0 0.00 0.00 0.00 87 1013.0
20260503043011 0 212 0.0 0.0 0.00 0.00 0.00 83 1012.8
20260503042508 0 212 0.0 1.6 0.00 0.00 0.00 85 1013.1
20260503042004 0 213 0.0 1.6 0.00 0.00 0.00 88 1013.0
20260503041501 0 215 1.6 3.2 0.00 0.00 0.00 88 1013.2
20260503040959 1 170 0.0 0.0 0.00 0.00 0.00 71 1013.0
20260503040456 0 197 0.0 0.0 0.00 0.00 0.00 82 1013.3
20260503035953 0 205 0.0 0.0 0.00 0.00 0.00 86 1013.3
20260503035450 0 205 0.0 0.0 0.00 0.00 0.00 85 1013.2
20260503034947 0 205 0.0 0.0 0.00 0.00 0.00 88 1013.5
20260503034444 0 205 0.0 0.0 0.00 0.00 0.00 89 1013.6
20260503033941 0 205 0.0 0.0 0.00 0.00 0.00 92 1013.5
20260503033439 0 203 0.0 0.0 0.00 0.00 0.00 92 1013.6
20260503032937 1 203 0.0 0.0 0.00 0.00 0.00 92 1013.7
20260503032435 1 203 0.0 0.0 0.00 0.00 0.00 90 1013.6
20260503031932 1 203 0.0 0.0 0.00 0.00 0.00 88 1013.6
20260503031430 1 203 0.0 0.0 0.00 0.00 0.00 84 1013.8
20260503030926 1 203 1.6 1.6 0.00 0.00 0.00 88 1013.8
20260503030423 1 198 1.6 3.2 0.00 0.00 0.00 86 1013.8
20260503025920 1 194 1.6 1.6 0.00 0.00 0.00 88 1013.8
20260503025417 1 171 1.6 3.2 0.00 0.00 0.00 89 1014.1
20260503024914 1 79 0.0 0.0 0.00 0.00 0.00 87 1013.8
20260503024411 1 64 0.0 0.0 0.00 0.00 0.00 83 1014.1
20260503023908 1 64 0.0 0.0 0.00 0.00 0.00 83 1013.8
20260503023404 2 64 0.0 0.0 0.00 0.00 0.00 82 1014.1
20260503022901 2 64 0.0 0.0 0.00 0.00 0.00 85 1014.2
20260503022355 2 64 0.0 0.0 0.00 0.00 0.00 86 1014.3
20260503021852 2 62 0.0 0.0 0.00 0.00 0.00 85 1014.2
20260503021349 2 62 0.0 0.0 0.00 0.00 0.00 82 1014.2
20260503020846 2 62 0.0 0.0 0.00 0.00 0.00 74 1014.2
20260503020344 2 62 0.0 0.0 0.00 0.00 0.00 72 1013.9
20260503015840 2 62 0.0 0.0 0.00 0.00 0.00 74 1013.9
20260503015337 2 62 0.0 0.0 0.00 0.00 0.00 75 1013.9
20260503014833 2 62 0.0 0.0 0.00 0.00 0.00 73 1014.2
20260503014331 3 62 0.0 0.0 0.00 0.00 0.00 73 1013.8
20260503013828 3 62 0.0 0.0 0.00 0.00 0.00 74 1014.1
20260503013325 3 62 0.0 0.0 0.00 0.00 0.00 68 1014.1
20260503012822 3 62 0.0 0.0 0.00 0.00 0.00 66 1014.1
20260503012320 3 62 0.0 0.0 0.00 0.00 0.00 66 1013.8
20260503011816 3 62 0.0 0.0 0.00 0.00 0.00 62 1013.8
20260503011313 4 62 0.0 0.0 0.00 0.00 0.00 64 1013.9
20260503010809 4 62 0.0 0.0 0.00 0.00 0.00 66 1013.8
20260503010307 5 62 0.0 1.6 0.00 0.00 0.00 64 1013.8
20260503005804 5 62 0.0 1.6 0.00 0.00 0.00 65 1013.7
20260503005304 5 62 0.0 0.0 0.00 0.00 0.00 64 1014.1
20260503004756 5 62 0.0 1.6 0.00 0.00 0.00 63 1013.8
20260503004255 6 62 0.0 1.6 0.00 0.00 0.00 59 1013.6
20260503003752 6 62 1.6 3.2 0.00 0.00 0.00 58 1013.9
20260503003249 6 61 1.6 1.6 0.00 0.00 0.00 60 1013.8
20260503002745 7 69 3.2 3.2 0.00 0.00 0.00 55 1014.1
20260503002243 7 49 3.2 3.2 0.00 0.00 0.00 44 1014.2
20260503001739 7 50 4.8 8.0 0.00 0.00 0.00 41 1014.1
20260503001235 8 56 4.8 4.8 0.00 0.00 0.00 45 1014.3
20260503000733 8 48 3.2 3.2 0.00 0.00 0.00 38 1014.2